Year,Month,Day,Hour,Minute,Value (Times are PST for windgust in km/hr)
2012,12,03,00,00,17.70
2012,12,03,00,01,22.50
2012,12,03,00,02,16.10
2012,12,03,00,03,12.90
2012,12,03,00,04,12.90
2012,12,03,00,05,12.90
2012,12,03,00,06,14.50
2012,12,03,00,07,14.50
2012,12,03,00,08,14.50
2012,12,03,00,09,16.10
2012,12,03,00,10,14.50
2012,12,03,00,11,11.30
2012,12,03,00,12,11.30
2012,12,03,00,13,12.90
2012,12,03,00,14,12.90
2012,12,03,00,15,17.70
2012,12,03,00,16,17.70
2012,12,03,00,17,16.10
2012,12,03,00,18,12.90
2012,12,03,00,19,11.30
2012,12,03,00,20,8.10
2012,12,03,00,21,14.50
2012,12,03,00,22,11.30
2012,12,03,00,23,11.30
2012,12,03,00,24,12.90
2012,12,03,00,25,8.10
2012,12,03,00,26,9.60
2012,12,03,00,27,9.60
2012,12,03,00,28,12.90
2012,12,03,00,29,8.10
2012,12,03,00,30,8.10
2012,12,03,00,31,6.40
2012,12,03,00,32,8.10
2012,12,03,00,33,8.10
2012,12,03,00,34,6.40
2012,12,03,00,35,9.60
2012,12,03,00,36,9.60
2012,12,03,00,37,8.10
2012,12,03,00,38,11.30
2012,12,03,00,39,12.90
2012,12,03,00,40,8.10
2012,12,03,00,41,11.30
2012,12,03,00,42,6.40
2012,12,03,00,43,11.30
2012,12,03,00,44,11.30
2012,12,03,00,45,8.10
2012,12,03,00,46,11.30
2012,12,03,00,47,9.60
2012,12,03,00,48,6.40
2012,12,03,00,49,6.40
2012,12,03,00,50,8.10
2012,12,03,00,51,8.10
2012,12,03,00,52,6.40
2012,12,03,00,53,8.10
2012,12,03,00,54,9.60
2012,12,03,00,55,9.60
2012,12,03,00,56,4.80
2012,12,03,00,57,6.40
2012,12,03,00,58,6.40
2012,12,03,00,59,6.40
2012,12,03,01,00,6.40
2012,12,03,01,01,3.20
2012,12,03,01,02,4.80
2012,12,03,01,03,6.40
2012,12,03,01,04,6.40
2012,12,03,01,05,8.10
2012,12,03,01,06,6.40
2012,12,03,01,07,11.30
2012,12,03,01,08,8.10
2012,12,03,01,09,9.60
2012,12,03,01,10,9.60
2012,12,03,01,11,12.90
2012,12,03,01,12,9.60
2012,12,03,01,13,17.70
2012,12,03,01,14,16.10
2012,12,03,01,15,17.70
2012,12,03,01,16,11.30
2012,12,03,01,17,11.30
2012,12,03,01,18,11.30
2012,12,03,01,19,14.50
2012,12,03,01,20,14.50
2012,12,03,01,21,16.10
2012,12,03,01,22,11.30
2012,12,03,01,23,16.10
2012,12,03,01,24,14.50
2012,12,03,01,25,17.70
2012,12,03,01,26,17.70
2012,12,03,01,27,14.50
2012,12,03,01,28,12.90
2012,12,03,01,29,12.90
2012,12,03,01,30,9.60
2012,12,03,01,31,16.10
2012,12,03,01,32,14.50
2012,12,03,01,33,11.30
2012,12,03,01,34,11.30
2012,12,03,01,35,17.70
2012,12,03,01,36,11.30
2012,12,03,01,37,11.30
2012,12,03,01,38,9.60
2012,12,03,01,39,11.30
2012,12,03,01,40,12.90
2012,12,03,01,41,11.30
2012,12,03,01,42,9.60
2012,12,03,01,43,8.10
2012,12,03,01,44,8.10
2012,12,03,01,45,6.40
2012,12,03,01,46,6.40
2012,12,03,01,48,6.40
2012,12,03,01,49,8.10
2012,12,03,01,50,8.10
2012,12,03,01,51,6.40
2012,12,03,01,52,4.80
2012,12,03,01,53,3.20
2012,12,03,01,54,6.40
2012,12,03,01,55,4.80
2012,12,03,01,56,3.20
2012,12,03,01,57,1.60
2012,12,03,02,01,6.40
2012,12,03,02,02,6.40
2012,12,03,02,03,8.10
2012,12,03,02,04,6.40
2012,12,03,02,05,6.40
2012,12,03,02,06,3.20
2012,12,03,02,07,1.60
2012,12,03,02,08,1.60
2012,12,03,02,09,1.60
2012,12,03,02,10,6.40
2012,12,03,02,11,6.40
2012,12,03,02,13,3.20
2012,12,03,02,14,8.10
2012,12,03,02,15,6.40
2012,12,03,02,16,3.20
2012,12,03,02,17,3.20
2012,12,03,02,18,6.40
2012,12,03,02,19,9.60
2012,12,03,02,20,8.10
2012,12,03,02,21,1.60
2012,12,03,02,22,8.10
2012,12,03,02,23,8.10
2012,12,03,02,24,6.40
2012,12,03,02,25,1.60
2012,12,03,02,26,1.60
2012,12,03,02,27,1.60
2012,12,03,02,28,4.80
2012,12,03,02,29,4.80
2012,12,03,02,30,3.20
2012,12,03,02,31,1.60
2012,12,03,02,36,1.60
2012,12,03,02,37,3.20
2012,12,03,02,38,3.20
2012,12,03,02,39,4.80
2012,12,03,02,40,4.80
2012,12,03,02,41,8.10
2012,12,03,02,42,11.30
2012,12,03,02,43,14.50
2012,12,03,02,44,12.90
2012,12,03,02,45,14.50
2012,12,03,02,46,12.90
2012,12,03,02,47,12.90
2012,12,03,02,48,11.30
2012,12,03,02,49,8.10
2012,12,03,02,50,8.10
2012,12,03,02,51,9.60
2012,12,03,02,52,14.50
2012,12,03,02,53,17.70
2012,12,03,02,54,22.50
2012,12,03,02,55,14.50
2012,12,03,02,56,22.50
2012,12,03,02,57,30.60
2012,12,03,02,58,29.00
2012,12,03,02,59,30.60
2012,12,03,03,00,29.00
2012,12,03,03,01,22.50
2012,12,03,03,02,32.20
2012,12,03,03,03,25.70
2012,12,03,03,04,27.40
2012,12,03,03,05,29.00
2012,12,03,03,06,20.90
2012,12,03,03,07,14.50
2012,12,03,03,08,12.90
2012,12,03,03,09,12.90
2012,12,03,03,10,12.90
2012,12,03,03,11,11.30
2012,12,03,03,12,16.10
2012,12,03,03,13,14.50
2012,12,03,03,14,12.90
2012,12,03,03,15,12.90
2012,12,03,03,16,6.40
2012,12,03,03,17,8.10
2012,12,03,03,18,8.10
2012,12,03,03,19,6.40
2012,12,03,03,20,3.20
2012,12,03,03,21,9.60
2012,12,03,03,22,9.60
2012,12,03,03,23,11.30
2012,12,03,03,24,8.10
2012,12,03,03,25,9.60
2012,12,03,03,26,8.10
2012,12,03,03,27,9.60
2012,12,03,03,28,11.30
2012,12,03,03,29,11.30
2012,12,03,03,30,12.90
2012,12,03,03,31,11.30
2012,12,03,03,32,11.30
2012,12,03,03,33,20.90
2012,12,03,03,34,32.20
2012,12,03,03,35,35.40
2012,12,03,03,36,19.30
2012,12,03,03,37,19.30
2012,12,03,03,38,14.50
2012,12,03,03,39,19.30
2012,12,03,03,40,19.30
2012,12,03,03,41,9.60
2012,12,03,03,42,9.60
2012,12,03,03,43,12.90
2012,12,03,03,44,14.50
2012,12,03,03,45,16.10
2012,12,03,03,46,27.40
2012,12,03,03,47,19.30
2012,12,03,03,48,19.30
2012,12,03,03,49,24.20
2012,12,03,03,50,20.90
2012,12,03,03,51,24.20
2012,12,03,03,52,25.70
2012,12,03,03,53,37.00
2012,12,03,03,54,33.80
2012,12,03,03,55,20.90
2012,12,03,03,56,27.40
2012,12,03,03,57,25.70
2012,12,03,03,58,20.90
2012,12,03,03,59,25.70
2012,12,03,04,00,20.90
2012,12,03,04,01,22.50
2012,12,03,04,02,25.70
2012,12,03,04,03,12.90
2012,12,03,04,04,25.70
2012,12,03,04,05,25.70
2012,12,03,04,06,30.60
2012,12,03,04,07,19.30
2012,12,03,04,08,19.30
2012,12,03,04,09,29.00
2012,12,03,04,10,22.50
2012,12,03,04,11,25.70
2012,12,03,04,12,33.80
2012,12,03,04,13,27.40
2012,12,03,04,14,32.20
2012,12,03,04,15,30.60
2012,12,03,04,16,20.90
2012,12,03,04,17,22.50
2012,12,03,04,18,20.90
2012,12,03,04,19,19.30
2012,12,03,04,20,20.90
2012,12,03,04,21,20.90
2012,12,03,04,22,19.30
2012,12,03,04,23,12.90
2012,12,03,04,24,20.90
2012,12,03,04,25,30.60
2012,12,03,04,26,25.70
2012,12,03,04,27,32.20
2012,12,03,04,28,30.60
2012,12,03,04,29,20.90
2012,12,03,04,30,30.60
2012,12,03,04,31,30.60
2012,12,03,04,32,30.60
2012,12,03,04,33,24.20
2012,12,03,04,34,25.70
2012,12,03,04,35,17.70
2012,12,03,04,36,14.50
2012,12,03,04,37,9.60
2012,12,03,04,38,12.90
2012,12,03,04,39,27.40
2012,12,03,04,40,20.90
2012,12,03,04,41,20.90
2012,12,03,04,42,22.50
2012,12,03,04,43,24.20
2012,12,03,04,44,17.70
2012,12,03,04,45,17.70
2012,12,03,04,46,22.50
2012,12,03,04,47,16.10
2012,12,03,04,48,17.70
2012,12,03,04,49,11.30
2012,12,03,04,50,17.70
2012,12,03,04,51,22.50
2012,12,03,04,52,17.70
2012,12,03,04,53,12.90
2012,12,03,04,54,20.90
2012,12,03,04,55,19.30
2012,12,03,04,56,20.90
2012,12,03,04,57,16.10
2012,12,03,04,58,16.10
2012,12,03,04,59,19.30
2012,12,03,05,00,19.30
2012,12,03,05,01,17.70
2012,12,03,05,02,19.30
2012,12,03,05,03,19.30
2012,12,03,05,04,19.30
2012,12,03,05,05,27.40
2012,12,03,05,06,20.90
2012,12,03,05,07,16.10
2012,12,03,05,08,20.90
2012,12,03,05,09,24.20
2012,12,03,05,10,22.50
2012,12,03,05,11,25.70
2012,12,03,05,12,20.90
2012,12,03,05,13,19.30
2012,12,03,05,14,22.50
2012,12,03,05,15,20.90
2012,12,03,05,16,19.30
2012,12,03,05,17,20.90
2012,12,03,05,18,25.70
2012,12,03,05,19,24.20
2012,12,03,05,20,20.90
2012,12,03,05,21,20.90
2012,12,03,05,22,20.90
2012,12,03,05,23,16.10
2012,12,03,05,24,19.30
2012,12,03,05,25,16.10
2012,12,03,05,26,17.70
2012,12,03,05,27,20.90
2012,12,03,05,28,16.10
2012,12,03,05,29,14.50
2012,12,03,05,30,20.90
2012,12,03,05,31,22.50
2012,12,03,05,32,27.40
2012,12,03,05,33,20.90
2012,12,03,05,34,24.20
2012,12,03,05,35,17.70
2012,12,03,05,36,12.90
2012,12,03,05,37,22.50
2012,12,03,05,38,19.30
2012,12,03,05,39,20.90
2012,12,03,05,40,24.20
2012,12,03,05,41,30.60
2012,12,03,05,42,25.70
2012,12,03,05,43,17.70
2012,12,03,05,44,20.90
2012,12,03,05,45,22.50
2012,12,03,05,46,17.70
2012,12,03,05,47,19.30
2012,12,03,05,48,19.30
2012,12,03,05,49,20.90
2012,12,03,05,50,14.50
2012,12,03,05,51,20.90
2012,12,03,05,52,17.70
2012,12,03,05,53,12.90
2012,12,03,05,54,24.20
2012,12,03,05,55,20.90
2012,12,03,05,56,14.50
2012,12,03,05,57,29.00
2012,12,03,05,58,24.20
2012,12,03,05,59,22.50
2012,12,03,06,00,16.10
2012,12,03,06,01,25.70
2012,12,03,06,02,17.70
2012,12,03,06,03,25.70
2012,12,03,06,04,17.70
2012,12,03,06,05,24.20
2012,12,03,06,06,22.50
2012,12,03,06,07,24.20
2012,12,03,06,08,22.50
2012,12,03,06,09,25.70
2012,12,03,06,10,24.20
2012,12,03,06,11,19.30
2012,12,03,06,12,29.00
2012,12,03,06,13,27.40
2012,12,03,06,14,19.30
2012,12,03,06,15,14.50
2012,12,03,06,16,20.90
2012,12,03,06,17,20.90
2012,12,03,06,18,20.90
2012,12,03,06,19,17.70
2012,12,03,06,20,19.30
2012,12,03,06,21,14.50
2012,12,03,06,22,24.20
2012,12,03,06,23,19.30
2012,12,03,06,24,22.50
2012,12,03,06,25,22.50
2012,12,03,06,26,20.90
2012,12,03,06,27,17.70
2012,12,03,06,28,16.10
2012,12,03,06,29,16.10
2012,12,03,06,30,19.30
2012,12,03,06,31,19.30
2012,12,03,06,32,12.90
2012,12,03,06,33,9.60
2012,12,03,06,34,16.10
2012,12,03,06,35,14.50
2012,12,03,06,36,11.30
2012,12,03,06,37,12.90
2012,12,03,06,38,14.50
2012,12,03,06,39,14.50
2012,12,03,06,40,16.10
2012,12,03,06,41,16.10
2012,12,03,06,42,12.90
2012,12,03,06,43,14.50
2012,12,03,06,44,22.50
2012,12,03,06,45,19.30
2012,12,03,06,46,12.90
2012,12,03,06,47,12.90
2012,12,03,06,48,12.90
2012,12,03,06,49,11.30
2012,12,03,06,50,12.90
2012,12,03,06,51,12.90
2012,12,03,06,52,14.50
2012,12,03,06,53,17.70
2012,12,03,06,54,14.50
2012,12,03,06,55,12.90
2012,12,03,06,56,11.30
2012,12,03,06,57,11.30
2012,12,03,06,58,12.90
2012,12,03,06,59,14.50
2012,12,03,07,00,14.50
2012,12,03,07,01,11.30
2012,12,03,07,02,14.50
2012,12,03,07,03,12.90
2012,12,03,07,04,11.30
2012,12,03,07,05,14.50
2012,12,03,07,06,9.60
2012,12,03,07,07,12.90
2012,12,03,07,08,16.10
2012,12,03,07,09,12.90
2012,12,03,07,10,12.90
2012,12,03,07,11,8.10
2012,12,03,07,12,14.50
2012,12,03,07,13,12.90
2012,12,03,07,14,11.30
2012,12,03,07,15,8.10
2012,12,03,07,16,9.60
2012,12,03,07,17,8.10
2012,12,03,07,18,9.60
2012,12,03,07,19,11.30
2012,12,03,07,20,14.50
2012,12,03,07,21,12.90
2012,12,03,07,22,11.30
2012,12,03,07,23,16.10
2012,12,03,07,24,16.10
2012,12,03,07,25,14.50
2012,12,03,07,26,9.60
2012,12,03,07,27,11.30
2012,12,03,07,28,9.60
2012,12,03,07,29,8.10
2012,12,03,07,30,11.30
2012,12,03,07,31,11.30
2012,12,03,07,32,16.10
2012,12,03,07,33,11.30
2012,12,03,07,34,9.60
2012,12,03,07,35,14.50
2012,12,03,07,36,12.90
2012,12,03,07,37,9.60
2012,12,03,07,38,9.60
2012,12,03,07,39,9.60
2012,12,03,07,40,8.10
2012,12,03,07,41,11.30
2012,12,03,07,42,14.50
2012,12,03,07,43,11.30
2012,12,03,07,44,14.50
2012,12,03,07,45,14.50
2012,12,03,07,46,11.30
2012,12,03,07,47,11.30
2012,12,03,07,48,12.90
2012,12,03,07,49,11.30
2012,12,03,07,50,9.60
2012,12,03,07,51,9.60
2012,12,03,07,52,12.90
2012,12,03,07,53,14.50
2012,12,03,07,54,12.90
2012,12,03,07,55,14.50
2012,12,03,07,56,19.30
2012,12,03,07,57,17.70
2012,12,03,07,58,19.30
2012,12,03,07,59,14.50
2012,12,03,08,00,14.50
2012,12,03,08,01,12.90
2012,12,03,08,02,8.10
2012,12,03,08,03,19.30
2012,12,03,08,04,12.90
2012,12,03,08,05,20.90
2012,12,03,08,06,12.90
2012,12,03,08,07,8.10
2012,12,03,08,08,9.60
2012,12,03,08,09,8.10
2012,12,03,08,10,11.30
2012,12,03,08,11,22.50
2012,12,03,08,12,20.90
2012,12,03,08,13,20.90
2012,12,03,08,14,14.50
2012,12,03,08,15,12.90
2012,12,03,08,16,12.90
2012,12,03,08,17,14.50
2012,12,03,08,18,8.10
2012,12,03,08,19,6.40
2012,12,03,08,20,8.10
2012,12,03,08,21,3.20
2012,12,03,08,22,1.60
2012,12,03,08,23,9.60
2012,12,03,08,24,12.90
2012,12,03,08,25,20.90
2012,12,03,08,26,19.30
2012,12,03,08,27,17.70
2012,12,03,08,28,16.10
2012,12,03,08,29,17.70
2012,12,03,08,30,17.70
2012,12,03,08,31,14.50
2012,12,03,08,32,12.90
2012,12,03,08,33,9.60
2012,12,03,08,34,11.30
2012,12,03,08,35,17.70
2012,12,03,08,36,16.10
2012,12,03,08,37,16.10
2012,12,03,08,38,17.70
2012,12,03,08,39,20.90
2012,12,03,08,40,19.30
2012,12,03,08,41,16.10
2012,12,03,08,42,16.10
2012,12,03,08,43,16.10
2012,12,03,08,44,14.50
2012,12,03,08,45,29.00
2012,12,03,08,46,27.40
2012,12,03,08,47,24.20
2012,12,03,08,48,22.50
2012,12,03,08,49,16.10
2012,12,03,08,50,14.50
2012,12,03,08,51,12.90
2012,12,03,08,52,12.90
2012,12,03,08,53,17.70
2012,12,03,08,54,14.50
2012,12,03,08,55,11.30
2012,12,03,08,56,12.90
2012,12,03,08,57,14.50
2012,12,03,08,58,14.50
2012,12,03,08,59,12.90
2012,12,03,09,00,12.90
2012,12,03,09,01,14.50
2012,12,03,09,02,17.70
2012,12,03,09,03,17.70
2012,12,03,09,04,19.30
2012,12,03,09,05,22.50
2012,12,03,09,06,17.70
2012,12,03,09,07,19.30
2012,12,03,09,08,14.50
2012,12,03,09,09,17.70
2012,12,03,09,10,16.10
2012,12,03,09,11,14.50
2012,12,03,09,12,11.30
2012,12,03,09,13,11.30
2012,12,03,09,14,9.60
2012,12,03,09,15,8.10
2012,12,03,09,16,9.60
2012,12,03,09,17,8.10
2012,12,03,09,18,11.30
2012,12,03,09,19,9.60
2012,12,03,09,20,12.90
2012,12,03,09,21,20.90
2012,12,03,09,22,19.30
2012,12,03,09,23,14.50
2012,12,03,09,24,22.50
2012,12,03,09,25,16.10
2012,12,03,09,26,17.70
2012,12,03,09,27,19.30
2012,12,03,09,28,22.50
2012,12,03,09,29,24.20
2012,12,03,09,30,19.30
2012,12,03,09,31,16.10
2012,12,03,09,32,14.50
2012,12,03,09,33,19.30
2012,12,03,09,34,22.50
2012,12,03,09,35,17.70
2012,12,03,09,36,16.10
2012,12,03,09,37,22.50
2012,12,03,09,38,19.30
2012,12,03,09,39,19.30
2012,12,03,09,40,9.60
2012,12,03,09,41,9.60
2012,12,03,09,42,11.30
2012,12,03,09,43,22.50
2012,12,03,09,44,19.30
2012,12,03,09,45,14.50
2012,12,03,09,46,12.90
2012,12,03,09,47,12.90
2012,12,03,09,48,16.10
2012,12,03,09,49,27.40
2012,12,03,09,50,19.30
2012,12,03,09,51,22.50
2012,12,03,09,52,19.30
2012,12,03,09,53,17.70
2012,12,03,09,54,16.10
2012,12,03,09,55,11.30
2012,12,03,09,56,19.30
2012,12,03,09,57,17.70
2012,12,03,09,58,22.50
2012,12,03,09,59,19.30
2012,12,03,10,00,20.90
2012,12,03,10,01,14.50
2012,12,03,10,02,16.10
2012,12,03,10,03,22.50
2012,12,03,10,04,20.90
2012,12,03,10,05,17.70
2012,12,03,10,06,19.30
2012,12,03,10,07,12.90
2012,12,03,10,08,20.90
2012,12,03,10,09,22.50
2012,12,03,10,10,20.90
2012,12,03,10,11,20.90
2012,12,03,10,12,16.10
2012,12,03,10,13,17.70
2012,12,03,10,14,17.70
2012,12,03,10,15,17.70
2012,12,03,10,16,20.90
2012,12,03,10,17,11.30
2012,12,03,10,18,12.90
2012,12,03,10,19,12.90
2012,12,03,10,20,12.90
2012,12,03,10,21,16.10
2012,12,03,10,22,19.30
2012,12,03,10,23,17.70
2012,12,03,10,24,12.90
2012,12,03,10,25,14.50
2012,12,03,10,26,19.30
2012,12,03,10,27,22.50
2012,12,03,10,28,19.30
2012,12,03,10,29,20.90
2012,12,03,10,30,17.70
2012,12,03,10,31,17.70
2012,12,03,10,32,24.20
2012,12,03,10,33,27.40
2012,12,03,10,34,22.50
2012,12,03,10,35,24.20
2012,12,03,10,36,22.50
2012,12,03,10,37,17.70
2012,12,03,10,38,14.50
2012,12,03,10,39,12.90
2012,12,03,10,40,19.30
2012,12,03,10,41,20.90
2012,12,03,10,42,20.90
2012,12,03,10,43,22.50
2012,12,03,10,44,17.70
2012,12,03,10,45,19.30
2012,12,03,10,46,17.70
2012,12,03,10,47,19.30
2012,12,03,10,48,24.20
2012,12,03,10,49,19.30
2012,12,03,10,50,17.70
2012,12,03,10,51,25.70
2012,12,03,10,52,24.20
2012,12,03,10,53,22.50
2012,12,03,10,54,22.50
2012,12,03,10,55,20.90
2012,12,03,10,56,17.70
2012,12,03,10,57,17.70
2012,12,03,10,58,11.30
2012,12,03,10,59,11.30
2012,12,03,11,00,19.30
2012,12,03,11,01,22.50
2012,12,03,11,02,20.90
2012,12,03,11,03,19.30
2012,12,03,11,04,17.70
2012,12,03,11,05,19.30
2012,12,03,11,06,20.90
2012,12,03,11,07,19.30
2012,12,03,11,08,19.30
2012,12,03,11,09,20.90
2012,12,03,11,10,19.30
2012,12,03,11,11,12.90
2012,12,03,11,12,12.90
2012,12,03,11,13,12.90
2012,12,03,11,14,14.50
2012,12,03,11,15,16.10
2012,12,03,11,16,16.10
2012,12,03,11,17,12.90
2012,12,03,11,18,22.50
2012,12,03,11,19,17.70
2012,12,03,11,20,14.50
2012,12,03,11,21,17.70
2012,12,03,11,22,19.30
2012,12,03,11,23,16.10
2012,12,03,11,24,9.60
2012,12,03,11,25,19.30
2012,12,03,11,26,12.90
2012,12,03,11,27,14.50
2012,12,03,11,28,17.70
2012,12,03,11,29,14.50
2012,12,03,11,30,12.90
2012,12,03,11,31,19.30
2012,12,03,11,32,14.50
2012,12,03,11,33,11.30
2012,12,03,11,34,19.30
2012,12,03,11,35,14.50
2012,12,03,11,36,24.20
2012,12,03,11,37,14.50
2012,12,03,11,38,12.90
2012,12,03,11,39,17.70
2012,12,03,11,40,14.50
2012,12,03,11,41,17.70
2012,12,03,11,42,17.70
2012,12,03,11,43,14.50
2012,12,03,11,44,20.90
2012,12,03,11,45,22.50
2012,12,03,11,46,19.30
2012,12,03,11,47,20.90
2012,12,03,11,48,19.30
2012,12,03,11,49,20.90
2012,12,03,11,50,22.50
2012,12,03,11,51,19.30
2012,12,03,11,52,29.00
2012,12,03,11,53,24.20
2012,12,03,11,54,22.50
2012,12,03,11,55,27.40
2012,12,03,11,56,17.70
2012,12,03,11,57,25.70
2012,12,03,11,58,22.50
2012,12,03,11,59,22.50
2012,12,03,12,00,19.30
2012,12,03,12,01,17.70
2012,12,03,12,02,20.90
2012,12,03,12,03,25.70
2012,12,03,12,04,19.30
2012,12,03,12,05,19.30
2012,12,03,12,06,19.30
2012,12,03,12,07,17.70
2012,12,03,12,08,20.90
2012,12,03,12,09,14.50
2012,12,03,12,10,19.30
2012,12,03,12,11,22.50
2012,12,03,12,12,20.90
2012,12,03,12,13,22.50
2012,12,03,12,14,22.50
2012,12,03,12,15,19.30
2012,12,03,12,16,17.70
2012,12,03,12,17,20.90
2012,12,03,12,18,19.30
2012,12,03,12,19,22.50
2012,12,03,12,20,19.30
2012,12,03,12,21,22.50
2012,12,03,12,22,17.70
2012,12,03,12,23,24.20
2012,12,03,12,24,24.20
2012,12,03,12,25,19.30
2012,12,03,12,26,17.70
2012,12,03,12,27,16.10
2012,12,03,12,28,24.20
2012,12,03,12,29,19.30
2012,12,03,12,30,17.70
2012,12,03,12,31,17.70
2012,12,03,12,32,17.70
2012,12,03,12,33,14.50
2012,12,03,12,34,27.40
2012,12,03,12,35,22.50
2012,12,03,12,36,24.20
2012,12,03,12,37,24.20
2012,12,03,12,38,27.40
2012,12,03,12,39,22.50
2012,12,03,12,40,19.30
2012,12,03,12,41,24.20
2012,12,03,12,42,24.20
2012,12,03,12,43,25.70
2012,12,03,12,44,20.90
2012,12,03,12,45,17.70
2012,12,03,12,46,22.50
2012,12,03,12,47,24.20
2012,12,03,12,48,20.90
2012,12,03,12,49,12.90
2012,12,03,12,50,14.50
2012,12,03,12,51,22.50
2012,12,03,12,52,24.20
2012,12,03,12,53,22.50
2012,12,03,12,54,19.30
2012,12,03,12,55,24.20
2012,12,03,12,56,19.30
2012,12,03,12,57,20.90
2012,12,03,12,58,17.70
2012,12,03,12,59,16.10
2012,12,03,13,00,24.20
2012,12,03,13,01,14.50
2012,12,03,13,02,19.30
2012,12,03,13,03,20.90
2012,12,03,13,04,25.70
2012,12,03,13,05,19.30
2012,12,03,13,06,19.30
2012,12,03,13,07,19.30
2012,12,03,13,08,19.30
2012,12,03,13,09,19.30
2012,12,03,13,10,22.50
2012,12,03,13,11,17.70
2012,12,03,13,12,25.70
2012,12,03,13,13,25.70
2012,12,03,13,14,32.20
2012,12,03,13,15,20.90
2012,12,03,13,16,17.70
2012,12,03,13,17,25.70
2012,12,03,13,18,20.90
2012,12,03,13,19,22.50
2012,12,03,13,20,20.90
2012,12,03,13,21,24.20
2012,12,03,13,22,17.70
2012,12,03,13,23,20.90
2012,12,03,13,24,25.70
2012,12,03,13,25,22.50
2012,12,03,13,26,20.90
2012,12,03,13,27,20.90
2012,12,03,13,28,20.90
2012,12,03,13,29,29.00
2012,12,03,13,30,38.60
2012,12,03,13,31,25.70
2012,12,03,13,32,24.20
2012,12,03,13,33,22.50
2012,12,03,13,34,22.50
2012,12,03,13,35,22.50
2012,12,03,13,36,16.10
2012,12,03,13,37,17.70
2012,12,03,13,38,27.40
2012,12,03,13,39,24.20
2012,12,03,13,40,27.40
2012,12,03,13,41,29.00
2012,12,03,13,42,19.30
2012,12,03,13,43,30.60
2012,12,03,13,44,24.20
2012,12,03,13,45,29.00
2012,12,03,13,46,20.90
2012,12,03,13,47,35.40
2012,12,03,13,48,25.70
2012,12,03,13,49,24.20
2012,12,03,13,50,22.50
2012,12,03,13,51,14.50
2012,12,03,13,52,16.10
2012,12,03,13,53,17.70
2012,12,03,13,54,20.90
2012,12,03,13,55,24.20
2012,12,03,13,56,27.40
2012,12,03,13,57,29.00
2012,12,03,13,58,20.90
2012,12,03,13,59,22.50
2012,12,03,14,00,30.60
2012,12,03,14,01,37.00
2012,12,03,14,02,22.50
2012,12,03,14,03,19.30
2012,12,03,14,04,29.00
2012,12,03,14,05,33.80
2012,12,03,14,06,22.50
2012,12,03,14,07,24.20
2012,12,03,14,08,29.00
2012,12,03,14,09,25.70
2012,12,03,14,10,19.30
2012,12,03,14,11,17.70
2012,12,03,14,12,24.20
2012,12,03,14,13,25.70
2012,12,03,14,14,20.90
2012,12,03,14,15,22.50
2012,12,03,14,16,25.70
2012,12,03,14,17,24.20
2012,12,03,14,18,22.50
2012,12,03,14,19,14.50
2012,12,03,14,20,29.00
2012,12,03,14,21,22.50
2012,12,03,14,22,19.30
2012,12,03,14,23,29.00
2012,12,03,14,24,27.40
2012,12,03,14,25,19.30
2012,12,03,14,26,20.90
2012,12,03,14,27,22.50
2012,12,03,14,28,22.50
2012,12,03,14,29,30.60
2012,12,03,14,30,24.20
2012,12,03,14,31,20.90
2012,12,03,14,32,20.90
2012,12,03,14,33,27.40
2012,12,03,14,34,30.60
2012,12,03,14,35,22.50
2012,12,03,14,36,22.50
2012,12,03,14,37,24.20
2012,12,03,14,38,25.70
2012,12,03,14,39,20.90
2012,12,03,14,40,19.30
2012,12,03,14,41,19.30
2012,12,03,14,42,30.60
2012,12,03,14,43,29.00
2012,12,03,14,44,25.70
2012,12,03,14,45,27.40
2012,12,03,14,46,24.20
2012,12,03,14,47,35.40
2012,12,03,14,48,22.50
2012,12,03,14,49,9.60
2012,12,03,14,50,25.70
2012,12,03,14,51,29.00
2012,12,03,14,52,22.50
2012,12,03,14,53,32.20
2012,12,03,14,54,20.90
2012,12,03,14,55,19.30
2012,12,03,14,56,16.10
2012,12,03,14,57,17.70
2012,12,03,14,58,22.50
2012,12,03,14,59,20.90
2012,12,03,15,00,20.90
2012,12,03,15,01,20.90
2012,12,03,15,02,30.60
2012,12,03,15,03,30.60
2012,12,03,15,04,29.00
2012,12,03,15,05,37.00
2012,12,03,15,06,20.90
2012,12,03,15,07,19.30
2012,12,03,15,08,27.40
2012,12,03,15,09,24.20
2012,12,03,15,10,16.10
2012,12,03,15,11,27.40
2012,12,03,15,12,24.20
2012,12,03,15,13,20.90
2012,12,03,15,14,12.90
2012,12,03,15,15,22.50
2012,12,03,15,16,22.50
2012,12,03,15,17,29.00
2012,12,03,15,18,29.00
2012,12,03,15,19,27.40
2012,12,03,15,20,24.20
2012,12,03,15,21,29.00
2012,12,03,15,22,20.90
2012,12,03,15,23,32.20
2012,12,03,15,24,20.90
2012,12,03,15,25,20.90
2012,12,03,15,26,12.90
2012,12,03,15,27,19.30
2012,12,03,15,28,25.70
2012,12,03,15,29,24.20
2012,12,03,15,30,24.20
2012,12,03,15,31,33.80
2012,12,03,15,32,32.20
2012,12,03,15,33,33.80
2012,12,03,15,34,25.70
2012,12,03,15,35,32.20
2012,12,03,15,36,24.20
2012,12,03,15,37,30.60
2012,12,03,15,38,24.20
2012,12,03,15,39,35.40
2012,12,03,15,40,25.70
2012,12,03,15,41,24.20
2012,12,03,15,42,22.50
2012,12,03,15,43,22.50
2012,12,03,15,44,25.70
2012,12,03,15,45,24.20
2012,12,03,15,46,24.20
2012,12,03,15,47,24.20
2012,12,03,15,48,33.80
2012,12,03,15,49,32.20
2012,12,03,15,50,29.00
2012,12,03,15,51,35.40
2012,12,03,15,52,27.40
2012,12,03,15,53,22.50
2012,12,03,15,54,27.40
2012,12,03,15,55,24.20
2012,12,03,15,56,25.70
2012,12,03,15,57,30.60
2012,12,03,15,58,32.20
2012,12,03,15,59,27.40
2012,12,03,16,00,27.40
2012,12,03,16,01,35.40
2012,12,03,16,02,25.70
2012,12,03,16,03,32.20
2012,12,03,16,04,29.00
2012,12,03,16,05,32.20
2012,12,03,16,06,32.20
2012,12,03,16,07,35.40
2012,12,03,16,08,35.40
2012,12,03,16,09,32.20
2012,12,03,16,10,22.50
2012,12,03,16,11,24.20
2012,12,03,16,12,25.70
2012,12,03,16,13,22.50
2012,12,03,16,14,22.50
2012,12,03,16,15,24.20
2012,12,03,16,16,24.20
2012,12,03,16,17,32.20
2012,12,03,16,18,24.20
2012,12,03,16,19,24.20
2012,12,03,16,20,25.70
2012,12,03,16,21,24.20
2012,12,03,16,22,32.20
2012,12,03,16,23,27.40
2012,12,03,16,24,35.40
2012,12,03,16,25,32.20
2012,12,03,16,26,30.60
2012,12,03,16,27,25.70
2012,12,03,16,28,17.70
2012,12,03,16,29,29.00
2012,12,03,16,30,30.60
2012,12,03,16,31,24.20
2012,12,03,16,32,27.40
2012,12,03,16,33,25.70
2012,12,03,16,34,29.00
2012,12,03,16,35,24.20
2012,12,03,16,36,32.20
2012,12,03,16,37,24.20
2012,12,03,16,38,22.50
2012,12,03,16,39,22.50
2012,12,03,16,40,29.00
2012,12,03,16,41,30.60
2012,12,03,16,42,30.60
2012,12,03,16,43,16.10
2012,12,03,16,44,22.50
2012,12,03,16,45,30.60
2012,12,03,16,46,22.50
2012,12,03,16,47,33.80
2012,12,03,16,48,24.20
2012,12,03,16,49,24.20
2012,12,03,16,50,14.50
2012,12,03,16,51,17.70
2012,12,03,16,52,19.30
2012,12,03,16,53,17.70
2012,12,03,16,54,35.40
2012,12,03,16,55,24.20
2012,12,03,16,56,24.20
2012,12,03,16,57,22.50
2012,12,03,16,58,24.20
2012,12,03,16,59,19.30
2012,12,03,17,00,24.20
2012,12,03,17,01,29.00
2012,12,03,17,02,24.20
2012,12,03,17,03,17.70
2012,12,03,17,04,19.30
2012,12,03,17,05,29.00
2012,12,03,17,06,19.30
2012,12,03,17,07,22.50
2012,12,03,17,08,22.50
2012,12,03,17,09,19.30
2012,12,03,17,10,22.50
2012,12,03,17,11,25.70
2012,12,03,17,12,14.50
2012,12,03,17,13,20.90
2012,12,03,17,14,24.20
2012,12,03,17,15,33.80
2012,12,03,17,16,27.40
2012,12,03,17,17,25.70
2012,12,03,17,18,24.20
2012,12,03,17,19,30.60
2012,12,03,17,20,19.30
2012,12,03,17,21,19.30
2012,12,03,17,22,32.20
2012,12,03,17,23,32.20
2012,12,03,17,24,25.70
2012,12,03,17,25,20.90
2012,12,03,17,26,24.20
2012,12,03,17,27,35.40
2012,12,03,17,28,19.30
2012,12,03,17,29,38.60
2012,12,03,17,30,33.80
2012,12,03,17,31,35.40
2012,12,03,17,32,30.60
2012,12,03,17,33,30.60
2012,12,03,17,34,30.60